Year,Month,Day,Hour,Minute,Value (Times are PST for temperature in C)
2016,09,22,00,00,9.30
2016,09,22,00,01,9.30
2016,09,22,00,02,9.30
2016,09,22,00,03,9.30
2016,09,22,00,04,9.20
2016,09,22,00,05,9.20
2016,09,22,00,06,9.20
2016,09,22,00,07,9.20
2016,09,22,00,08,9.20
2016,09,22,00,09,9.20
2016,09,22,00,10,9.10
2016,09,22,00,11,9.10
2016,09,22,00,12,9.10
2016,09,22,00,13,9.10
2016,09,22,00,14,9.10
2016,09,22,00,15,9.10
2016,09,22,00,16,9.20
2016,09,22,00,17,9.20
2016,09,22,00,18,9.30
2016,09,22,00,19,9.30
2016,09,22,00,20,9.30
2016,09,22,00,21,9.30
2016,09,22,00,22,9.30
2016,09,22,00,23,9.30
2016,09,22,00,24,9.20
2016,09,22,00,25,9.20
2016,09,22,00,26,9.10
2016,09,22,00,27,9.10
2016,09,22,00,28,9.00
2016,09,22,00,29,9.00
2016,09,22,00,30,8.90
2016,09,22,00,31,8.80
2016,09,22,00,32,8.80
2016,09,22,00,33,8.70
2016,09,22,00,34,8.70
2016,09,22,00,35,8.70
2016,09,22,00,36,8.60
2016,09,22,00,37,8.60
2016,09,22,00,38,8.60
2016,09,22,00,39,8.60
2016,09,22,00,40,8.60
2016,09,22,00,41,8.60
2016,09,22,00,42,8.70
2016,09,22,00,43,8.70
2016,09,22,00,44,8.70
2016,09,22,00,45,8.70
2016,09,22,00,46,8.80
2016,09,22,00,47,8.80
2016,09,22,00,48,8.80
2016,09,22,00,49,8.80
2016,09,22,00,50,8.80
2016,09,22,00,51,8.70
2016,09,22,00,52,8.70
2016,09,22,00,53,8.70
2016,09,22,00,54,8.70
2016,09,22,00,55,8.70
2016,09,22,00,56,8.70
2016,09,22,00,57,8.60
2016,09,22,00,58,8.60
2016,09,22,00,59,8.60
2016,09,22,01,00,8.60
2016,09,22,01,01,8.60
2016,09,22,01,02,8.60
2016,09,22,01,03,8.50
2016,09,22,01,04,8.50
2016,09,22,01,05,8.50
2016,09,22,01,06,8.40
2016,09,22,01,07,8.40
2016,09,22,01,08,8.40
2016,09,22,01,09,8.40
2016,09,22,01,10,8.40
2016,09,22,01,11,8.40
2016,09,22,01,12,8.40
2016,09,22,01,13,8.40
2016,09,22,01,14,8.40
2016,09,22,01,15,8.40
2016,09,22,01,16,8.40
2016,09,22,01,17,8.40
2016,09,22,01,18,8.30
2016,09,22,01,19,8.30
2016,09,22,01,20,8.30
2016,09,22,01,21,8.30
2016,09,22,01,22,8.30
2016,09,22,01,23,8.40
2016,09,22,01,24,8.40
2016,09,22,01,25,8.40
2016,09,22,01,26,8.30
2016,09,22,01,27,8.30
2016,09,22,01,28,8.30
2016,09,22,01,29,8.40
2016,09,22,01,30,8.40
2016,09,22,01,31,8.40
2016,09,22,01,32,8.40
2016,09,22,01,33,8.40
2016,09,22,01,34,8.40
2016,09,22,01,35,8.30
2016,09,22,01,36,8.30
2016,09,22,01,37,8.30
2016,09,22,01,38,8.30
2016,09,22,01,39,8.30
2016,09,22,01,40,8.20
2016,09,22,01,41,8.20
2016,09,22,01,42,8.10
2016,09,22,01,43,8.10
2016,09,22,01,44,8.00
2016,09,22,01,45,8.00
2016,09,22,01,46,7.90
2016,09,22,01,47,7.90
2016,09,22,01,48,7.90
2016,09,22,01,49,7.90
2016,09,22,01,50,7.80
2016,09,22,01,51,7.80
2016,09,22,01,52,7.80
2016,09,22,01,53,7.80
2016,09,22,01,54,7.90
2016,09,22,01,55,7.90
2016,09,22,01,56,7.90
2016,09,22,01,57,7.90
2016,09,22,01,58,7.90
2016,09,22,01,59,7.90
2016,09,22,02,00,8.00
2016,09,22,02,01,8.00
2016,09,22,02,02,8.00
2016,09,22,02,03,8.00
2016,09,22,02,04,8.00
2016,09,22,02,05,8.00
2016,09,22,02,06,8.00
2016,09,22,02,07,7.90
2016,09,22,02,08,7.90
2016,09,22,02,09,7.90
2016,09,22,02,10,7.90
2016,09,22,02,11,7.90
2016,09,22,02,12,7.90
2016,09,22,02,13,7.90
2016,09,22,02,14,7.90
2016,09,22,02,15,7.90
2016,09,22,02,16,7.90
2016,09,22,02,17,7.90
2016,09,22,02,18,7.90
2016,09,22,02,19,7.90
2016,09,22,02,20,7.90
2016,09,22,02,21,7.90
2016,09,22,02,22,7.90
2016,09,22,02,23,7.90
2016,09,22,02,24,7.90
2016,09,22,02,25,7.90
2016,09,22,02,26,7.80
2016,09,22,02,27,7.80
2016,09,22,02,28,7.80
2016,09,22,02,29,7.80
2016,09,22,02,30,7.80
2016,09,22,02,31,7.80
2016,09,22,02,32,7.70
2016,09,22,02,33,7.70
2016,09,22,02,34,7.80
2016,09,22,02,35,7.80
2016,09,22,02,36,7.80
2016,09,22,02,37,7.80
2016,09,22,02,38,7.80
2016,09,22,02,39,7.80
2016,09,22,02,40,7.80
2016,09,22,02,41,7.70
2016,09,22,02,42,7.70
2016,09,22,02,43,7.70
2016,09,22,02,44,7.70
2016,09,22,02,45,7.60
2016,09,22,02,46,7.60
2016,09,22,02,47,7.60
2016,09,22,02,48,7.60
2016,09,22,02,49,7.60
2016,09,22,02,50,7.60
2016,09,22,02,51,7.50
2016,09,22,02,52,7.50
2016,09,22,02,53,7.50
2016,09,22,02,54,7.50
2016,09,22,02,55,7.50
2016,09,22,02,56,7.40
2016,09,22,02,57,7.40
2016,09,22,02,58,7.40
2016,09,22,02,59,7.40
2016,09,22,03,00,7.40
2016,09,22,03,01,7.40
2016,09,22,03,02,7.40
2016,09,22,03,03,7.40
2016,09,22,03,04,7.40
2016,09,22,03,05,7.30
2016,09,22,03,06,7.30
2016,09,22,03,07,7.30
2016,09,22,03,08,7.30
2016,09,22,03,09,7.30
2016,09,22,03,10,7.20
2016,09,22,03,11,7.20
2016,09,22,03,12,7.20
2016,09,22,03,13,7.30
2016,09,22,03,14,7.30
2016,09,22,03,15,7.30
2016,09,22,03,16,7.40
2016,09,22,03,17,7.40
2016,09,22,03,18,7.40
2016,09,22,03,19,7.40
2016,09,22,03,20,7.40
2016,09,22,03,21,7.40
2016,09,22,03,22,7.40
2016,09,22,03,23,7.40
2016,09,22,03,24,7.40
2016,09,22,03,25,7.40
2016,09,22,03,26,7.30
2016,09,22,03,27,7.30
2016,09,22,03,28,7.30
2016,09,22,03,29,7.30
2016,09,22,03,30,7.30
2016,09,22,03,31,7.30
2016,09,22,03,32,7.20
2016,09,22,03,33,7.20
2016,09,22,03,34,7.20
2016,09,22,03,35,7.20
2016,09,22,03,36,7.20
2016,09,22,03,37,7.20
2016,09,22,03,38,7.20
2016,09,22,03,39,7.30
2016,09,22,03,40,7.30
2016,09,22,03,41,7.30
2016,09,22,03,42,7.30
2016,09,22,03,43,7.30
2016,09,22,03,44,7.30
2016,09,22,03,45,7.30
2016,09,22,03,46,7.30
2016,09,22,03,47,7.30
2016,09,22,03,48,7.30
2016,09,22,03,49,7.30
2016,09,22,03,50,7.30
2016,09,22,03,51,7.30
2016,09,22,03,52,7.30
2016,09,22,03,53,7.20
2016,09,22,03,54,7.20
2016,09,22,03,55,7.20
2016,09,22,03,56,7.20
2016,09,22,03,57,7.20
2016,09,22,03,58,7.30
2016,09,22,03,59,7.30
2016,09,22,04,00,7.30
2016,09,22,04,01,7.30
2016,09,22,04,02,7.30
2016,09,22,04,03,7.40
2016,09,22,04,04,7.40
2016,09,22,04,05,7.40
2016,09,22,04,06,7.40
2016,09,22,04,07,7.40
2016,09,22,04,08,7.40
2016,09,22,04,09,7.50
2016,09,22,04,10,7.50
2016,09,22,04,11,7.50
2016,09,22,04,12,7.50
2016,09,22,04,13,7.50
2016,09,22,04,14,7.60
2016,09,22,04,15,7.50
2016,09,22,04,16,7.50
2016,09,22,04,17,7.50
2016,09,22,04,18,7.60
2016,09,22,04,19,7.60
2016,09,22,04,20,7.60
2016,09,22,04,21,7.60
2016,09,22,04,22,7.60
2016,09,22,04,23,7.60
2016,09,22,04,24,7.50
2016,09,22,04,25,7.50
2016,09,22,04,26,7.40
2016,09,22,04,27,7.30
2016,09,22,04,28,7.30
2016,09,22,04,29,7.30
2016,09,22,04,30,7.20
2016,09,22,04,31,7.20
2016,09,22,04,32,7.20
2016,09,22,04,33,7.20
2016,09,22,04,34,7.10
2016,09,22,04,35,7.10
2016,09,22,04,36,7.00
2016,09,22,04,37,7.00
2016,09,22,04,38,6.90
2016,09,22,04,39,6.90
2016,09,22,04,40,6.80
2016,09,22,04,41,6.90
2016,09,22,04,42,6.90
2016,09,22,04,43,6.90
2016,09,22,04,44,6.80
2016,09,22,04,45,6.80
2016,09,22,04,46,6.80
2016,09,22,04,47,6.80
2016,09,22,04,48,6.80
2016,09,22,04,49,6.80
2016,09,22,04,50,6.80
2016,09,22,04,51,6.80
2016,09,22,04,52,6.80
2016,09,22,04,53,6.80
2016,09,22,04,54,6.90
2016,09,22,04,55,6.80
2016,09,22,04,56,6.80
2016,09,22,04,57,6.80
2016,09,22,04,58,6.80
2016,09,22,04,59,6.80
2016,09,22,05,00,6.80
2016,09,22,05,01,6.80
2016,09,22,05,02,6.80
2016,09,22,05,03,6.70
2016,09,22,05,04,6.70
2016,09,22,05,05,6.70
2016,09,22,05,06,6.70
2016,09,22,05,07,6.70
2016,09,22,05,08,6.70
2016,09,22,05,09,6.80
2016,09,22,05,10,6.80
2016,09,22,05,11,6.80
2016,09,22,05,12,6.80
2016,09,22,05,13,6.90
2016,09,22,05,14,6.90
2016,09,22,05,15,6.90
2016,09,22,05,16,6.90
2016,09,22,05,17,6.80
2016,09,22,05,18,6.80
2016,09,22,05,19,6.80
2016,09,22,05,20,6.80
2016,09,22,05,21,6.80
2016,09,22,05,22,6.70
2016,09,22,05,23,6.70
2016,09,22,05,24,6.70
2016,09,22,05,25,6.70
2016,09,22,05,26,6.70
2016,09,22,05,27,6.70
2016,09,22,05,28,6.60
2016,09,22,05,29,6.60
2016,09,22,05,30,6.60
2016,09,22,05,31,6.50
2016,09,22,05,32,6.50
2016,09,22,05,33,6.50
2016,09,22,05,34,6.50
2016,09,22,05,35,6.50
2016,09,22,05,36,6.50
2016,09,22,05,37,6.50
2016,09,22,05,38,6.50
2016,09,22,05,39,6.50
2016,09,22,05,40,6.60
2016,09,22,05,41,6.60
2016,09,22,05,42,6.60
2016,09,22,05,43,6.60
2016,09,22,05,44,6.60
2016,09,22,05,45,6.60
2016,09,22,05,46,6.60
2016,09,22,05,47,6.70
2016,09,22,05,48,6.70
2016,09,22,05,49,6.80
2016,09,22,05,50,6.80
2016,09,22,05,51,6.80
2016,09,22,05,52,6.70
2016,09,22,05,53,6.70
2016,09,22,05,54,6.60
2016,09,22,05,55,6.50
2016,09,22,05,56,6.50
2016,09,22,05,57,6.40
2016,09,22,05,58,6.30
2016,09,22,05,59,6.20
2016,09,22,06,00,6.20
2016,09,22,06,01,6.10
2016,09,22,06,02,6.10
2016,09,22,06,03,6.10
2016,09,22,06,04,6.10
2016,09,22,06,05,6.10
2016,09,22,06,06,6.10
2016,09,22,06,07,6.10
2016,09,22,06,08,6.10
2016,09,22,06,09,6.10
2016,09,22,06,10,6.10
2016,09,22,06,11,6.10
2016,09,22,06,12,6.10
2016,09,22,06,13,6.20
2016,09,22,06,14,6.20
2016,09,22,06,15,6.20
2016,09,22,06,16,6.20
2016,09,22,06,17,6.20
2016,09,22,06,18,6.30
2016,09,22,06,19,6.30
2016,09,22,06,20,6.30
2016,09,22,06,21,6.30
2016,09,22,06,22,6.40
2016,09,22,06,23,6.40
2016,09,22,06,24,6.50
2016,09,22,06,25,6.50
2016,09,22,06,26,6.60
2016,09,22,06,27,6.60
2016,09,22,06,28,6.60
2016,09,22,06,29,6.60
2016,09,22,06,30,6.70
2016,09,22,06,31,6.60
2016,09,22,06,32,6.60
2016,09,22,06,33,6.60
2016,09,22,06,34,6.60
2016,09,22,06,35,6.60
2016,09,22,06,36,6.50
2016,09,22,06,37,6.50
2016,09,22,06,38,6.40
2016,09,22,06,39,6.40
2016,09,22,06,40,6.30
2016,09,22,06,41,6.30
2016,09,22,06,42,6.30
2016,09,22,06,43,6.30
2016,09,22,06,44,6.20
2016,09,22,06,45,6.20
2016,09,22,06,46,6.20
2016,09,22,06,47,6.20
2016,09,22,06,48,6.20
2016,09,22,06,49,6.20
2016,09,22,06,50,6.20
2016,09,22,06,51,6.20
2016,09,22,06,52,6.20
2016,09,22,06,53,6.10
2016,09,22,06,54,6.10
2016,09,22,06,55,6.10
2016,09,22,06,56,6.00
2016,09,22,06,57,6.00
2016,09,22,06,58,5.90
2016,09,22,06,59,5.90
2016,09,22,07,00,5.90
2016,09,22,07,01,5.80
2016,09,22,07,02,5.90
2016,09,22,07,03,5.90
2016,09,22,07,04,5.90
2016,09,22,07,05,5.90
2016,09,22,07,06,5.90
2016,09,22,07,07,5.90
2016,09,22,07,08,5.90
2016,09,22,07,09,5.90
2016,09,22,07,10,5.90
2016,09,22,07,11,5.90
2016,09,22,07,12,5.90
2016,09,22,07,13,5.90
2016,09,22,07,14,5.90
2016,09,22,07,15,5.80
2016,09,22,07,16,5.80
2016,09,22,07,17,5.80
2016,09,22,07,18,5.90
2016,09,22,07,19,5.90
2016,09,22,07,20,5.90
2016,09,22,07,21,6.00
2016,09,22,07,22,6.00
2016,09,22,07,23,6.10
2016,09,22,07,24,6.10
2016,09,22,07,25,6.20
2016,09,22,07,26,6.30
2016,09,22,07,27,6.30
2016,09,22,07,28,6.30
2016,09,22,07,29,6.30
2016,09,22,07,30,6.30
2016,09,22,07,31,6.30
2016,09,22,07,32,6.30
2016,09,22,07,33,6.30
2016,09,22,07,34,6.30
2016,09,22,07,35,6.40
2016,09,22,07,36,6.40
2016,09,22,07,37,6.50
2016,09,22,07,38,6.50
2016,09,22,07,39,6.60
2016,09,22,07,40,6.60
2016,09,22,07,41,6.60
2016,09,22,07,42,6.70
2016,09,22,07,43,6.70
2016,09,22,07,44,6.80
2016,09,22,07,45,6.80
2016,09,22,07,46,6.90
2016,09,22,07,47,7.00
2016,09,22,07,48,7.10
2016,09,22,07,49,7.20
2016,09,22,07,50,7.20
2016,09,22,07,51,7.30
2016,09,22,07,52,7.30
2016,09,22,07,53,7.40
2016,09,22,07,54,7.40
2016,09,22,07,55,7.50
2016,09,22,07,56,7.50
2016,09,22,07,57,7.60
2016,09,22,07,58,7.60
2016,09,22,07,59,7.70
2016,09,22,08,00,7.70
2016,09,22,08,01,7.70
2016,09,22,08,02,7.70
2016,09,22,08,03,7.70
2016,09,22,08,04,7.70
2016,09,22,08,05,7.70
2016,09,22,08,06,7.70
2016,09,22,08,07,7.70
2016,09,22,08,08,7.70
2016,09,22,08,09,7.70
2016,09,22,08,10,7.70
2016,09,22,08,11,7.70
2016,09,22,08,12,7.70
2016,09,22,08,13,7.70
2016,09,22,08,14,7.70
2016,09,22,08,15,7.80
2016,09,22,08,16,7.80
2016,09,22,08,17,7.90
2016,09,22,08,18,7.90
2016,09,22,08,19,7.90
2016,09,22,08,20,8.00
2016,09,22,08,21,8.10
2016,09,22,08,22,8.10
2016,09,22,08,23,8.10
2016,09,22,08,24,8.20
2016,09,22,08,25,8.20
2016,09,22,08,26,8.30
2016,09,22,08,27,8.40
2016,09,22,08,28,8.50
2016,09,22,08,29,8.60
2016,09,22,08,30,8.70
2016,09,22,08,31,8.80
2016,09,22,08,32,8.90
2016,09,22,08,33,9.00
2016,09,22,08,34,9.10
2016,09,22,08,35,9.20
2016,09,22,08,36,9.30
2016,09,22,08,37,9.40
2016,09,22,08,38,9.50
2016,09,22,08,39,9.60
2016,09,22,08,40,9.70
2016,09,22,08,41,9.70
2016,09,22,08,42,9.80
2016,09,22,08,43,9.90
2016,09,22,08,44,9.90
2016,09,22,08,45,10.00
2016,09,22,08,46,10.10
2016,09,22,08,47,10.10
2016,09,22,08,48,10.20
2016,09,22,08,49,10.30
2016,09,22,08,50,10.40
2016,09,22,08,51,10.50
2016,09,22,08,52,10.60
2016,09,22,08,53,10.70
2016,09,22,08,54,10.80
2016,09,22,08,55,10.80
2016,09,22,08,56,10.90
2016,09,22,08,57,11.00
2016,09,22,08,58,11.10
2016,09,22,08,59,11.20
2016,09,22,09,00,11.30
2016,09,22,09,01,11.30
2016,09,22,09,02,11.40
2016,09,22,09,03,11.50
2016,09,22,09,04,11.60
2016,09,22,09,05,11.70
2016,09,22,09,06,11.80
2016,09,22,09,07,11.90
2016,09,22,09,08,12.00
2016,09,22,09,09,12.10
2016,09,22,09,10,12.20
2016,09,22,09,11,12.30
2016,09,22,09,12,12.40
2016,09,22,09,13,12.40
2016,09,22,09,14,12.50
2016,09,22,09,15,12.60
2016,09,22,09,16,12.70
2016,09,22,09,17,12.80
2016,09,22,09,18,12.90
2016,09,22,09,19,13.00
2016,09,22,09,20,13.10
2016,09,22,09,21,13.10
2016,09,22,09,22,13.20
2016,09,22,09,23,13.30
2016,09,22,09,24,13.40
2016,09,22,09,25,13.50
2016,09,22,09,26,13.60
2016,09,22,09,27,13.70
2016,09,22,09,28,13.70
2016,09,22,09,29,13.80
2016,09,22,09,30,13.90
2016,09,22,09,31,13.90
2016,09,22,09,32,14.00
2016,09,22,09,33,14.10
2016,09,22,09,34,14.20
2016,09,22,09,35,14.30
2016,09,22,09,36,14.40
2016,09,22,09,37,14.40
2016,09,22,09,38,14.40
2016,09,22,09,39,14.50
2016,09,22,09,40,14.50
2016,09,22,09,41,14.50
2016,09,22,09,42,14.60
2016,09,22,09,43,14.60
2016,09,22,09,44,14.60
2016,09,22,09,45,14.60
2016,09,22,09,46,14.70
2016,09,22,09,47,14.70
2016,09,22,09,48,14.70
2016,09,22,09,49,14.80
2016,09,22,09,50,14.90
2016,09,22,09,51,15.00
2016,09,22,09,52,15.10
2016,09,22,09,53,15.20
2016,09,22,09,54,15.20
2016,09,22,09,55,15.30
2016,09,22,09,56,15.40
2016,09,22,09,57,15.40
2016,09,22,09,58,15.50
2016,09,22,09,59,15.50
2016,09,22,10,00,15.60
2016,09,22,10,01,15.60
2016,09,22,10,02,15.70
2016,09,22,10,03,15.70
2016,09,22,10,04,15.80
2016,09,22,10,05,15.80
2016,09,22,10,06,15.80
2016,09,22,10,07,15.90
2016,09,22,10,08,15.90
2016,09,22,10,09,15.90
2016,09,22,10,10,15.90
2016,09,22,10,11,15.90
2016,09,22,10,12,16.00
2016,09,22,10,13,16.00
2016,09,22,10,14,16.10
2016,09,22,10,15,16.10
2016,09,22,10,16,16.10
2016,09,22,10,17,16.10
2016,09,22,10,18,16.00
2016,09,22,10,19,16.00
2016,09,22,10,20,15.90
2016,09,22,10,21,15.80
2016,09,22,10,22,15.70
2016,09,22,10,23,15.70
2016,09,22,10,24,15.70
2016,09,22,10,25,15.70
2016,09,22,10,26,15.70
2016,09,22,10,27,15.70
2016,09,22,10,28,15.70
2016,09,22,10,29,15.70
2016,09,22,10,30,15.80
2016,09,22,10,31,15.80
2016,09,22,10,32,15.80
2016,09,22,10,33,15.80
2016,09,22,10,34,15.80
2016,09,22,10,35,15.90
2016,09,22,10,36,15.90
2016,09,22,10,37,16.00
2016,09,22,10,38,16.00
2016,09,22,10,39,16.00
2016,09,22,10,40,16.10
2016,09,22,10,41,16.10
2016,09,22,10,42,16.20
2016,09,22,10,43,16.20
2016,09,22,10,44,16.20
2016,09,22,10,45,16.30
2016,09,22,10,46,16.30
2016,09,22,10,47,16.40
2016,09,22,10,48,16.40
2016,09,22,10,49,16.40
2016,09,22,10,50,16.40
2016,09,22,10,51,16.40
2016,09,22,10,52,16.50
2016,09,22,10,53,16.50
2016,09,22,10,54,16.50
2016,09,22,10,55,16.50
2016,09,22,10,56,16.40
2016,09,22,10,57,16.40
2016,09,22,10,58,16.30
2016,09,22,10,59,16.30
2016,09,22,11,00,16.30
2016,09,22,11,01,16.30
2016,09,22,11,02,16.30
2016,09,22,11,03,16.30
2016,09,22,11,04,16.30
2016,09,22,11,05,16.40
2016,09,22,11,06,16.40
2016,09,22,11,07,16.50
2016,09,22,11,08,16.50
2016,09,22,11,09,16.60
2016,09,22,11,10,16.60
2016,09,22,11,11,16.70
2016,09,22,11,12,16.80
2016,09,22,11,13,16.80
2016,09,22,11,14,16.90
2016,09,22,11,15,16.90
2016,09,22,11,16,16.90
2016,09,22,11,17,17.00
2016,09,22,11,18,17.10
2016,09,22,11,19,17.10
2016,09,22,11,20,17.00
2016,09,22,11,21,17.00
2016,09,22,11,22,17.00
2016,09,22,11,23,16.90
2016,09,22,11,24,16.90
2016,09,22,11,25,16.90
2016,09,22,11,26,16.90
2016,09,22,11,27,16.90
2016,09,22,11,28,16.90
2016,09,22,11,29,17.00
2016,09,22,11,30,17.00
2016,09,22,11,31,17.00
2016,09,22,11,32,17.10
2016,09,22,11,33,17.10
2016,09,22,11,34,17.00
2016,09,22,11,35,17.10
2016,09,22,11,36,17.10
2016,09,22,11,37,17.10
2016,09,22,11,38,17.10
2016,09,22,11,39,17.20
2016,09,22,11,40,17.10
2016,09,22,11,41,17.00
2016,09,22,11,42,17.00
2016,09,22,11,43,17.00
2016,09,22,11,44,17.10
2016,09,22,11,45,17.10
2016,09,22,11,46,17.20
2016,09,22,11,47,17.20
2016,09,22,11,48,17.10
2016,09,22,11,49,17.10
2016,09,22,11,50,17.00
2016,09,22,11,51,17.00
2016,09,22,11,52,16.90
2016,09,22,11,53,16.90
2016,09,22,11,54,16.90
2016,09,22,11,55,16.80
2016,09,22,11,56,16.80
2016,09,22,11,57,16.90
2016,09,22,11,58,16.80
2016,09,22,11,59,16.80
2016,09,22,12,00,16.70
2016,09,22,12,01,16.70
2016,09,22,12,02,16.70
2016,09,22,12,03,16.70
2016,09,22,12,04,16.70
2016,09,22,12,05,16.70
2016,09,22,12,06,16.70
2016,09,22,12,07,16.80
2016,09,22,12,08,16.80
2016,09,22,12,09,16.80
2016,09,22,12,10,16.90
2016,09,22,12,11,16.90
2016,09,22,12,12,17.00
2016,09,22,12,13,17.00
2016,09,22,12,14,17.00
2016,09,22,12,15,17.00
2016,09,22,12,16,17.10
2016,09,22,12,17,17.10
2016,09,22,12,18,17.10
2016,09,22,12,19,17.20
2016,09,22,12,20,17.20
2016,09,22,12,21,17.20
2016,09,22,12,22,17.20
2016,09,22,12,23,17.20
2016,09,22,12,24,17.20
2016,09,22,12,25,17.10
2016,09,22,12,26,17.00
2016,09,22,12,27,16.90
2016,09,22,12,28,16.90
2016,09,22,12,29,16.90
2016,09,22,12,30,16.90
2016,09,22,12,31,16.90
2016,09,22,12,32,16.90
2016,09,22,12,33,16.90
2016,09,22,12,34,16.90
2016,09,22,12,35,16.90
2016,09,22,12,36,16.80
2016,09,22,12,37,16.80
2016,09,22,12,38,16.70
2016,09,22,12,39,16.80
2016,09,22,12,40,16.80
2016,09,22,12,41,16.80
2016,09,22,12,42,16.90
2016,09,22,12,43,17.00
2016,09,22,12,44,17.10
2016,09,22,12,45,17.10
2016,09,22,12,46,17.20
2016,09,22,12,47,17.20
2016,09,22,12,48,17.20
2016,09,22,12,49,17.20
2016,09,22,12,50,17.20
2016,09,22,12,51,17.20
2016,09,22,12,52,17.20
2016,09,22,12,53,17.20
2016,09,22,12,54,17.20
2016,09,22,12,55,17.20
2016,09,22,12,56,17.10
2016,09,22,12,57,17.00
2016,09,22,12,58,17.10
2016,09,22,12,59,17.10
2016,09,22,13,00,17.20
2016,09,22,13,01,17.30
2016,09,22,13,02,17.20
2016,09,22,13,03,17.20
2016,09,22,13,04,17.20
2016,09,22,13,05,17.20
2016,09,22,13,06,17.20
2016,09,22,13,07,17.20
2016,09,22,13,08,17.20
2016,09,22,13,09,17.20
2016,09,22,13,10,17.30
2016,09,22,13,11,17.30
2016,09,22,13,12,17.30
2016,09,22,13,13,17.20
2016,09,22,13,14,17.20
2016,09,22,13,15,17.30
2016,09,22,13,16,17.20
2016,09,22,13,17,17.30
2016,09,22,13,18,17.20
2016,09,22,13,19,17.20
2016,09,22,13,20,17.20
2016,09,22,13,21,17.20
2016,09,22,13,22,17.20
2016,09,22,13,23,17.20
2016,09,22,13,24,17.10
2016,09,22,13,25,17.10
2016,09,22,13,26,17.00
2016,09,22,13,27,17.00
2016,09,22,13,28,17.10
2016,09,22,13,29,17.10
2016,09,22,13,30,17.10
2016,09,22,13,31,17.10
2016,09,22,13,32,17.00
2016,09,22,13,33,16.90
2016,09,22,13,34,16.80
2016,09,22,13,35,16.70
2016,09,22,13,36,16.60
2016,09,22,13,37,16.60
2016,09,22,13,38,16.50
2016,09,22,13,39,16.50
2016,09,22,13,40,16.50
2016,09,22,13,41,16.60
2016,09,22,13,42,16.60
2016,09,22,13,43,16.60
2016,09,22,13,44,16.60
2016,09,22,13,45,16.50
2016,09,22,13,46,16.50
2016,09,22,13,47,16.50
2016,09,22,13,48,16.50
2016,09,22,13,49,16.50
2016,09,22,13,50,16.50
2016,09,22,13,51,16.40
2016,09,22,13,52,16.40
2016,09,22,13,53,16.30
2016,09,22,13,54,16.30
2016,09,22,13,55,16.30
2016,09,22,13,56,16.30
2016,09,22,13,57,16.30
2016,09,22,13,58,16.40
2016,09,22,13,59,16.60
2016,09,22,14,00,16.70
2016,09,22,14,01,16.80
2016,09,22,14,02,16.90
2016,09,22,14,03,16.90
2016,09,22,14,04,16.90
2016,09,22,14,05,16.80
2016,09,22,14,06,16.80
2016,09,22,14,07,16.90
2016,09,22,14,08,16.90
2016,09,22,14,09,16.80
2016,09,22,14,10,16.80
2016,09,22,14,11,16.90
2016,09,22,14,12,17.00
2016,09,22,14,13,17.10
2016,09,22,14,14,17.10
2016,09,22,14,15,17.10
2016,09,22,14,16,17.10
2016,09,22,14,17,17.10
2016,09,22,14,18,17.10
2016,09,22,14,19,17.10
2016,09,22,14,20,17.10
2016,09,22,14,21,17.10
2016,09,22,14,22,17.20
2016,09,22,14,23,17.30
2016,09,22,14,24,17.40
2016,09,22,14,25,17.50
2016,09,22,14,26,17.60
2016,09,22,14,27,17.70
2016,09,22,14,28,17.70
2016,09,22,14,29,17.80
2016,09,22,14,30,17.80
2016,09,22,14,31,17.90
2016,09,22,14,32,18.00
2016,09,22,14,33,18.10
2016,09,22,14,34,18.20
2016,09,22,14,35,18.10
2016,09,22,14,36,18.10
2016,09,22,14,37,18.10
2016,09,22,14,38,18.10
2016,09,22,14,39,18.10
2016,09,22,14,40,18.00
2016,09,22,14,41,18.10
2016,09,22,14,42,18.10
2016,09,22,14,43,18.20
2016,09,22,14,44,18.20
2016,09,22,14,45,18.30
2016,09,22,14,46,18.30
2016,09,22,14,47,18.20
2016,09,22,14,48,18.20
2016,09,22,14,49,18.20
2016,09,22,14,50,18.20
2016,09,22,14,51,18.30
2016,09,22,14,52,18.30
2016,09,22,14,53,18.40
2016,09,22,14,54,18.40
2016,09,22,14,55,18.40
2016,09,22,14,56,18.30
2016,09,22,14,57,18.20
2016,09,22,14,58,18.20
2016,09,22,14,59,18.10
2016,09,22,15,00,18.00
2016,09,22,15,01,17.90
2016,09,22,15,02,17.80
2016,09,22,15,03,17.70
2016,09,22,15,04,17.70
2016,09,22,15,05,17.60
2016,09,22,15,06,17.60
2016,09,22,15,07,17.50
2016,09,22,15,08,17.50
2016,09,22,15,09,17.40
2016,09,22,15,10,17.50
2016,09,22,15,11,17.50
2016,09,22,15,12,17.60
2016,09,22,15,13,17.70
2016,09,22,15,14,17.80
2016,09,22,15,15,17.80
2016,09,22,15,16,17.80
2016,09,22,15,17,17.80
2016,09,22,15,18,17.80
2016,09,22,15,19,17.80
2016,09,22,15,20,17.80
2016,09,22,15,21,17.80
2016,09,22,15,22,17.80
2016,09,22,15,23,17.70
2016,09,22,15,24,17.60
2016,09,22,15,25,17.50
2016,09,22,15,26,17.30
2016,09,22,15,27,17.20
2016,09,22,15,28,17.20
2016,09,22,15,29,17.10
2016,09,22,15,30,17.10
2016,09,22,15,31,17.10
2016,09,22,15,32,17.00
2016,09,22,15,33,17.00
2016,09,22,15,34,17.00
2016,09,22,15,35,17.00
2016,09,22,15,36,17.00
2016,09,22,15,37,17.10
2016,09,22,15,38,17.10
2016,09,22,15,39,17.10
2016,09,22,15,40,17.00
2016,09,22,15,41,16.90
2016,09,22,15,42,16.80
2016,09,22,15,43,16.80
2016,09,22,15,44,16.80
2016,09,22,15,45,16.80
2016,09,22,15,46,16.80
2016,09,22,15,47,16.80
2016,09,22,15,48,16.70
2016,09,22,15,49,16.70
2016,09,22,15,50,16.60
2016,09,22,15,51,16.60
2016,09,22,15,52,16.60
2016,09,22,15,53,16.60
2016,09,22,15,54,16.60
2016,09,22,15,55,16.70
2016,09,22,15,56,16.70
2016,09,22,15,57,16.70
2016,09,22,15,58,16.80
2016,09,22,15,59,16.80
2016,09,22,16,00,16.90
2016,09,22,16,01,17.00
2016,09,22,16,02,17.10
2016,09,22,16,03,17.20
2016,09,22,16,04,17.40
2016,09,22,16,05,17.50
2016,09,22,16,06,17.70
2016,09,22,16,07,17.80
2016,09,22,16,08,18.00
2016,09,22,16,09,18.10
2016,09,22,16,10,18.20
2016,09,22,16,11,18.30
2016,09,22,16,12,18.50
2016,09,22,16,13,18.60
2016,09,22,16,14,18.60
2016,09,22,16,15,18.70
2016,09,22,16,16,18.70
2016,09,22,16,17,18.70
2016,09,22,16,18,18.80
2016,09,22,16,19,18.90
2016,09,22,16,20,18.90
2016,09,22,16,21,18.90
2016,09,22,16,22,18.90
2016,09,22,16,23,18.90
2016,09,22,16,24,18.90
2016,09,22,16,25,19.00
2016,09,22,16,26,19.00
2016,09,22,16,27,19.10
2016,09,22,16,28,19.00
2016,09,22,16,29,19.00
2016,09,22,16,30,19.00
2016,09,22,16,31,19.00
2016,09,22,16,32,19.00
2016,09,22,16,33,19.00
2016,09,22,16,34,19.00
2016,09,22,16,35,18.90
2016,09,22,16,36,18.90
2016,09,22,16,37,18.80
2016,09,22,16,38,18.80
2016,09,22,16,39,18.80
2016,09,22,16,40,18.80
2016,09,22,16,41,18.80
2016,09,22,16,42,18.80
2016,09,22,16,43,18.70
2016,09,22,16,44,18.60
2016,09,22,16,45,18.60
2016,09,22,16,46,18.60
2016,09,22,16,47,18.50
2016,09,22,16,48,18.40
2016,09,22,16,49,18.30
2016,09,22,16,50,18.20
2016,09,22,16,51,18.20
2016,09,22,16,52,18.10
2016,09,22,16,53,18.10
2016,09,22,16,54,18.00
2016,09,22,16,55,17.90
2016,09,22,16,56,17.80
2016,09,22,16,57,17.70
2016,09,22,16,58,17.70
2016,09,22,16,59,17.60
2016,09,22,17,00,17.60
2016,09,22,17,01,17.60
2016,09,22,17,02,17.50
2016,09,22,17,03,17.50
2016,09,22,17,04,17.40
2016,09,22,17,05,17.40
2016,09,22,17,06,17.40
2016,09,22,17,07,17.40
2016,09,22,17,08,17.40
2016,09,22,17,09,17.40
2016,09,22,17,10,17.40
2016,09,22,17,11,17.40
2016,09,22,17,12,17.40
2016,09,22,17,13,17.50
2016,09,22,17,14,17.50
2016,09,22,17,15,17.40
2016,09,22,17,16,17.40
2016,09,22,17,17,17.40
2016,09,22,17,18,17.30
2016,09,22,17,19,17.30
2016,09,22,17,20,17.20
2016,09,22,17,21,17.10
2016,09,22,17,22,17.00
2016,09,22,17,23,17.00
2016,09,22,17,24,17.00
2016,09,22,17,25,17.00
2016,09,22,17,26,16.90
2016,09,22,17,27,16.90
2016,09,22,17,28,16.90
2016,09,22,17,29,17.00
2016,09,22,17,30,17.00
2016,09,22,17,31,17.10
2016,09,22,17,32,17.10
2016,09,22,17,33,17.20
2016,09,22,17,34,17.20
2016,09,22,17,35,17.20
2016,09,22,17,36,17.30
2016,09,22,17,37,17.40
2016,09,22,17,38,17.50
2016,09,22,17,39,17.60
2016,09,22,17,40,17.80
2016,09,22,17,41,17.90
2016,09,22,17,42,18.00